Regional Weather Roundup
Issued by NWS

Home | Current Version | Previous Version | Graphics & Text | Print | Product List | Glossary On
Versions: 1 2 3 4 5 6 7 8 9 10 11 12 13 14 15 16 17 18 19 20 21 22 23 24 25 26 27 28 29 30 31 32 33 34 35 36 37 38 39 40 41 42 43 44 45 46 47 48 49 50
000
ASUS43 KLSX 161357
RWRMO

WEATHER SUMMARY FOR MISSOURI
NATIONAL WEATHER SERVICE SPRINGFIELD MO
800 AM CST TUE JAN 16 2018

NOTE: "FAIR" INDICATES FEW OR NO CLOUDS BELOW 12,000 FEET WITH NO
       SIGNIFICANT WEATHER AND/OR OBSTRUCTIONS TO VISIBILITY.
       CURRENT SKY AND/OR WEATHER CONDITIONS ARE NOT AVAILABLE FOR
       CHILLICOTHE AND FARMINGTON.

MOZ001>031-035>038-043-044-053-054-161500-
...NORTHERN AND WESTERN MISSOURI...

CITY           SKY/WX    TMP DP  RH WIND       PRES   REMARKS
KANSAS CTY INT CLOUDY    -3  -9  75 NW10      30.72R WCI -20
KANSAS C DTWN  CLOUDY     0  -8  71 NW9       30.76R WCI -16
LEE`S SUMMIT   MOCLDY    -2  -8  76 NW13      30.72R WCI -20
ST JOSEPH        N/A    N/A N/A N/A MISG      30.76R
CHILLICOTHE      N/A     -2 -10  69 NW8       30.71R WCI -17

$$
MOZ066>068-077>081-088>096-101>105-161500-
...SOUTHWEST MISSOURI...

CITY           SKY/WX    TMP DP  RH WIND       PRES   REMARKS
SPRINGFIELD    CLOUDY    -4 -10  75 NW5       30.67S WCI -15
JOPLIN         CLOUDY    -5  -9  83 NW7       30.77R WCI -19
BRANSON        PTCLDY     0  -8  71 NW7       30.69R WCI -13

$$
MOZ032>034-039>042-045>050-055>058-069>072-161500-
...CENTRAL MISSOURI...

CITY           SKY/WX    TMP DP  RH WIND       PRES   REMARKS
COLUMBIA       NOT AVBL
JEFFERSON CITY PTCLDY    -2 -10  69 W10       30.73R WCI -19
ROLLA          PTCLDY    -5  -9  83 W8        30.65R WCI -20
SEDALIA        PTCLDY    -3  -8  79 NW9       30.71R WCI -19
WARRENSBURG    CLEAR     -4  -9  77 NW6       30.74R WCI -16

$$
MOZ051-052-059>065-161500-
...EAST CENTRAL MISSOURI...

CITY           SKY/WX    TMP DP  RH WIND       PRES   REMARKS
ST LOUIS INTL  FLURRIES   0  -8  69 W14G24    30.66R WCI -19

$$
MOZ072>076-082>087-097>100-106>115-161500-
...SOUTH CENTRAL AND SOUTHEAST MISSOURI...

CITY           SKY/WX    TMP DP  RH WIND       PRES   REMARKS
CAPE GIRARDEAU FAIR       3  -3  76 NW6       30.68S WCI  -8
POPLAR BLUFF   FAIR       6  -6  57 NW5       30.71R WCI  -3
WEST PLAINS    CLOUDY    -1  -8  72 NW6       30.66R WCI -13

$$



USA.gov is the U.S. government's official web portal to all federal, state and local government web resources and services.